TimeMDT,TemperatureF,Dew PointF,Humidity,Sea Level PressureIn,VisibilityMPH,Wind Direction,Wind SpeedMPH,Gust SpeedMPH,PrecipitationIn,Events,Conditions,WindDirDegrees,DateUTC
12:53 AM,59.0,54.0,83,29.81,10.0,ESE,6.9,-,N/A,,Scattered Clouds,120,2013-08-24 06:53:00
1:53 AM,57.9,53.1,84,29.87,10.0,Calm,Calm,-,N/A,,Partly Cloudy,0,2013-08-24 07:53:00
2:53 AM,57.9,51.1,78,29.86,10.0,Calm,Calm,-,N/A,,Clear,0,2013-08-24 08:53:00
3:53 AM,53.1,50.0,89,29.89,10.0,Calm,Calm,-,N/A,,Clear,0,2013-08-24 09:53:00
4:53 AM,53.1,50.0,89,29.89,10.0,Calm,Calm,-,N/A,,Clear,0,2013-08-24 10:53:00
5:53 AM,51.1,48.0,89,29.89,10.0,SSE,3.5,-,0.01,,Clear,150,2013-08-24 11:53:00
6:53 AM,53.1,48.0,83,29.90,10.0,SW,6.9,-,N/A,,Clear,220,2013-08-24 12:53:00
7:53 AM,54.0,48.9,83,29.92,10.0,SSW,3.5,-,N/A,,Clear,200,2013-08-24 13:53:00
8:53 AM,57.9,51.1,78,29.93,10.0,Calm,Calm,-,N/A,,Clear,0,2013-08-24 14:53:00
9:53 AM,62.1,51.1,67,29.93,10.0,SSW,5.8,-,N/A,,Clear,200,2013-08-24 15:53:00
10:53 AM,66.0,50.0,56,29.93,10.0,SSW,4.6,-,N/A,,Clear,210,2013-08-24 16:53:00
11:53 AM,68.0,50.0,52,29.91,10.0,Calm,Calm,-,N/A,,Clear,0,2013-08-24 17:53:00
12:53 PM,72.0,51.1,48,29.88,10.0,Calm,Calm,-,N/A,,Clear,0,2013-08-24 18:53:00
1:53 PM,75.9,51.1,42,29.85,10.0,NE,3.5,-,N/A,,Clear,40,2013-08-24 19:53:00
2:53 PM,79.0,51.1,38,29.82,10.0,Variable,3.5,-,N/A,,Clear,0,2013-08-24 20:53:00
3:53 PM,75.0,53.1,46,29.81,10.0,ESE,4.6,-,N/A,,Clear,120,2013-08-24 21:53:00
4:53 PM,75.0,44.1,33,29.81,9.0,Calm,Calm,-,N/A,,Mostly Cloudy,0,2013-08-24 22:53:00
5:39 PM,57.2,48.2,72,30.05,2.0,SW,17.3,36.8,0.21,Rain,Heavy Rain,220,2013-08-24 23:39:00
5:47 PM,57.2,48.2,72,30.06,3.0,South,11.5,23.0,0.26,Rain,Rain,190,2013-08-24 23:47:00
5:48 PM,59.0,48.0,67,29.96,3.0,South,9.2,23.0,0.27,Rain,Rain,180,2013-08-24 23:48:00
6:53 PM,59.0,50.0,72,29.98,9.0,East,15.0,-,0.04,,Overcast,100,2013-08-25 00:53:00
7:53 PM,57.9,52.0,81,29.98,9.0,ESE,19.6,-,0.03,Rain,Light Rain,110,2013-08-25 01:53:00
8:53 PM,60.1,48.0,64,30.00,10.0,SSE,19.6,-,0.00,,Scattered Clouds,150,2013-08-25 02:53:00
9:53 PM,57.0,48.0,72,29.99,10.0,Calm,Calm,-,0.00,,Partly Cloudy,0,2013-08-25 03:53:00
10:53 PM,55.9,48.9,77,29.98,10.0,Calm,Calm,-,N/A,,Clear,0,2013-08-25 04:53:00
11:53 PM,55.9,48.9,77,29.99,10.0,South,4.6,-,N/A,,Clear,170,2013-08-25 05:53:00